{"data":{"norad_id":42662,"intl_designator":"2017-018A","name":"CHINASAT 16 (SJ-13)","alt_names":[],"object_type":"PAYLOAD","status":"ACTIVE","operator":null,"country":"PRC","launch_date":"2017-04-12","launch_site_code":"XICLF","launch_vehicle":null,"mission":null,"orbit_class":"UNKNOWN","rcs_meters":12.3708,"size_class":null,"mass_kg":null,"dimensions":null,"purposes":["comms"],"wikipedia_slug":null,"has_3d_model":false,"image_url":null,"decayed_at":null,"tle_current":{"epoch":"2026-05-25T07:41:28.018752Z","epoch_age_seconds":50643,"freshness":"FRESH","line1":"1 42662U 17018A   26145.32046318 -.00000354  00000+0  00000+0 0  9993","line2":"2 42662   0.1008  91.8052 0003503 143.3514 233.6168  1.00274111 33527","mean_motion":1.00274111,"eccentricity":0.0003503,"inclination_deg":0.1008,"raan_deg":91.8052,"arg_perigee_deg":143.3514,"mean_anomaly_deg":233.6168,"bstar":0,"rev_number":3352,"period_min":1436.0635917281,"perigee_km":35771.172834366,"apogee_km":35800.712988752,"semimajor_km":42164.079911559,"source":"CELESTRAK","updated_at":"2026-05-25T13:38:14.043093Z"}}}